This is the latest recevied weather packets stored in our database for station/object W1QED. If no packets are shown the sender has not sent any weather packets the latest 10 day(s).
| Time | Temp. | Humidity | Pressure | Rain* | Wind** | Luminosity | Snow |
|---|---|---|---|---|---|---|---|
| 1777838752 | 10.56° C | 30% | 1006.9 hPa | 0 mm | - | - | - |
| 1777838456 | 11.11° C | 31% | 1006.9 hPa | 0 mm | - | - | - |
| 1777838153 | 10° C | 32% | 1007 hPa | 0 mm | - | - | - |
| 1777837849 | 10° C | 31% | 1007 hPa | 0 mm | - | - | - |
| 1777837557 | 10.56° C | 31% | 1006.9 hPa | 0 mm | - | - | - |
| 1777837248 | 10.56° C | 33% | 1006.8 hPa | 0 mm | - | - | - |
| 1777836948 | 10.56° C | 32% | 1006.7 hPa | 0 mm | - | - | - |
| 1777836648 | 10.56° C | 33% | 1006.7 hPa | 0 mm | - | - | - |
| 1777836346 | 11.11° C | 31% | 1006.9 hPa | 0 mm | - | - | - |
| 1777836046 | 11.11° C | 32% | 1006.8 hPa | 0 mm | - | - | - |
| 1777835747 | 11.11° C | 33% | 1006.8 hPa | 0 mm | - | - | - |
| 1777835444 | 11.67° C | 33% | 1006.9 hPa | 0 mm | - | - | - |
| 1777835141 | 11.67° C | 31% | 1006.8 hPa | 0 mm | - | - | - |
| 1777834841 | 11.11° C | 32% | 1006.8 hPa | 0 mm | - | - | - |
| 1777834540 | 11.11° C | 33% | 1006.8 hPa | 0 mm | - | - | - |
| 1777834239 | 10.56° C | 34% | 1006.8 hPa | 0 mm | - | - | - |
| 1777833938 | 10.56° C | 33% | 1006.9 hPa | 0 mm | - | - | - |
| 1777833638 | 10.56° C | 33% | 1007 hPa | 0 mm | - | - | - |
| 1777833337 | 11.11° C | 33% | 1006.8 hPa | 0 mm | - | - | - |
| 1777833036 | 11.11° C | 34% | 1006.8 hPa | 0 mm | - | - | - |
| 1777832795 | 11.11° C | 36% | 1006.8 hPa | 0 mm | - | - | - |
| 1777832435 | 10.56° C | 37% | 1006.8 hPa | 0 mm | - | - | - |
| 1777832135 | 10° C | 36% | 1006.9 hPa | 0 mm | - | - | - |
| 1777831833 | 10° C | 36% | 1006.9 hPa | 0 mm | - | - | - |
| 1777831533 | 10° C | 37% | 1006.7 hPa | 0 mm | - | - | - |
* Rain latest hour (hover to see other rain measurements)
** Current wind speed in m/s (hover to see current wind gust speed)